パンスターズ彗星

C/2015 V1 ( PanSTARRS )

English version
Home page
Updated on October 22, 2018

---------------------------------------------------------------------

・ プロフィール

発見日 2015年11月2日
発見光度 20.2等
発見者 Pan-STARRS 1 telescope (Haleakala)

・ 写真集

・ 軌道要素

Epoch 2018 Jan. 2.0 TT = JDT 2458120.5
T 2017 Dec. 17.73632 TT                                 MPCW
q   4.2667894            (2000.0)            P               Q
z  -0.0001230      Peri.  179.63915     +0.95387963     +0.22988599
 +/-0.0000003      Node   197.19416     +0.27375653     -0.40230219
e   1.0005249      Incl.  139.22913     +0.12317066     -0.88617458
From 1956 observations 2015 Nov. 2-2018 Sept. 18, mean residual 0".5.

・ 星図

・ 光度変化

        m1 = 5.5 + 5 logΔ + 11.0 log r(t + 180)

---------------------------------------------------------------------

軌道要素はM.P.E.C. 2018-S50に掲載されたものです。
星図はステラナビゲータ Ver.8 (アストロアーツ) で作成したものです。
光度グラフはComet for Windowsで作成したものです。

---------------------------------------------------------------------

Copyright(C) Seiichi Yoshida (comet@aerith.net). All rights reserved.